Location: Caltech
(34.1382°N, 118.1253°W)
Time: 04:51:58
(UTC-07:00)

Iridium 72 - Visible Passes

Search period start: 01 August 2014 00:00
Search period end: 11 August 2014 00:00
Orbit: 776 x 779 km, 86.4° (Epoch: 31 July)

Date Brightness Start Highest point End Pass type
(mag) Time Alt. Az. Time Alt. Az. Time Alt. Az.
01 Aug 7.8 01:23:59 19° NW 01:23:59 19° NW 01:25:41 10° NNW visible
02 Aug 7.6 00:50:34 24° NNW 00:50:34 24° NNW 00:52:38 10° N visible
03 Aug 7.5 00:17:08 24° N 00:17:08 24° N 00:19:10 10° N visible
03 Aug 7.7 23:43:41 19° NNE 23:43:41 19° NNE 23:45:17 10° NNE visible
04 Aug 8.1 01:24:10 14° NW 01:24:10 14° NW 01:25:11 10° NNW visible
04 Aug 8.0 23:10:15 12° NE 23:10:15 12° NE 23:10:50 10° NE visible
05 Aug 7.8 00:50:43 20° NNW 00:50:43 20° NNW 00:52:30 10° NNW visible
06 Aug 7.6 00:17:16 24° N 00:17:16 24° N 00:19:16 10° N visible
06 Aug 7.6 23:43:49 22° NNE 23:43:49 22° NNE 23:45:38 10° NNE visible
07 Aug 7.8 23:10:21 16° NE 23:10:21 16° NE 23:11:34 10° NNE visible
08 Aug 8.0 00:50:49 16° NW 00:50:49 16° NW 00:52:10 10° NNW visible
09 Aug 7.7 00:17:21 22° NNW 00:17:21 22° NNW 00:19:13 10° N visible
09 Aug 7.5 23:43:52 24° N 23:43:52 24° N 23:45:49 10° N visible
10 Aug 7.6 23:10:24 20° NNE 23:10:24 20° NNE 23:12:02 10° NNE visible
